Index of /20260502/WXO-DD/model_rdps/10km/18/016
Name Last modified Size Description
Parent Directory -
20260502T18Z_MSC_RDPS_AbsoluteVorticity_IsbL-0250_RLatLon0.09_PT016H.grib2 2026-05-02 20:43 616K
20260502T18Z_MSC_RDPS_AbsoluteVorticity_IsbL-0500_RLatLon0.09_PT016H.grib2 2026-05-02 20:43 566K
20260502T18Z_MSC_RDPS_AbsoluteVorticity_IsbL-0700_RLatLon0.09_PT016H.grib2 2026-05-02 20:43 624K
20260502T18Z_MSC_RDPS_AbsoluteVorticity_IsbL-0850_RLatLon0.09_PT016H.grib2 2026-05-02 20:43 791K
20260502T18Z_MSC_RDPS_AirTemp_AGL-120m_RLatLon0.09_PT016H.grib2 2026-05-02 20:43 380K
20260502T18Z_MSC_RDPS_AirTemp_AGL-2m_RLatLon0.09_PT016H.grib2 2026-05-02 20:43 640K
20260502T18Z_MSC_RDPS_AirTemp_AGL-40m_RLatLon0.09_PT016H.grib2 2026-05-02 20:43 397K
20260502T18Z_MSC_RDPS_AirTemp_AGL-80m_RLatLon0.09_PT016H.grib2 2026-05-02 20:43 388K
20260502T18Z_MSC_RDPS_AirTemp_IsbL-0001_RLatLon0.09_PT016H.grib2 2026-05-02 20:43 298K
20260502T18Z_MSC_RDPS_AirTemp_IsbL-0005_RLatLon0.09_PT016H.grib2 2026-05-02 20:43 280K
20260502T18Z_MSC_RDPS_AirTemp_IsbL-0010_RLatLon0.09_PT016H.grib2 2026-05-02 20:43 291K
20260502T18Z_MSC_RDPS_AirTemp_IsbL-0020_RLatLon0.09_PT016H.grib2 2026-05-02 20:43 404K
20260502T18Z_MSC_RDPS_AirTemp_IsbL-0030_RLatLon0.09_PT016H.grib2 2026-05-02 20:43 333K
20260502T18Z_MSC_RDPS_AirTemp_IsbL-0050_RLatLon0.09_PT016H.grib2 2026-05-02 20:43 312K
20260502T18Z_MSC_RDPS_AirTemp_IsbL-0100_RLatLon0.09_PT016H.grib2 2026-05-02 20:43 389K
20260502T18Z_MSC_RDPS_AirTemp_IsbL-0150_RLatLon0.09_PT016H.grib2 2026-05-02 20:43 444K
20260502T18Z_MSC_RDPS_AirTemp_IsbL-0175_RLatLon0.09_PT016H.grib2 2026-05-02 20:43 408K
20260502T18Z_MSC_RDPS_AirTemp_IsbL-0200_RLatLon0.09_PT016H.grib2 2026-05-02 20:43 415K
20260502T18Z_MSC_RDPS_AirTemp_IsbL-0225_RLatLon0.09_PT016H.grib2 2026-05-02 20:43 418K
20260502T18Z_MSC_RDPS_AirTemp_IsbL-0250_RLatLon0.09_PT016H.grib2 2026-05-02 20:43 426K
20260502T18Z_MSC_RDPS_AirTemp_IsbL-0275_RLatLon0.09_PT016H.grib2 2026-05-02 20:43 407K
20260502T18Z_MSC_RDPS_AirTemp_IsbL-0300_RLatLon0.09_PT016H.grib2 2026-05-02 20:43 414K
20260502T18Z_MSC_RDPS_AirTemp_IsbL-0350_RLatLon0.09_PT016H.grib2 2026-05-02 20:43 427K
20260502T18Z_MSC_RDPS_AirTemp_IsbL-0400_RLatLon0.09_PT016H.grib2 2026-05-02 20:43 427K
20260502T18Z_MSC_RDPS_AirTemp_IsbL-0450_RLatLon0.09_PT016H.grib2 2026-05-02 20:43 401K
20260502T18Z_MSC_RDPS_AirTemp_IsbL-0500_RLatLon0.09_PT016H.grib2 2026-05-02 20:43 413K
20260502T18Z_MSC_RDPS_AirTemp_IsbL-0550_RLatLon0.09_PT016H.grib2 2026-05-02 20:43 429K
20260502T18Z_MSC_RDPS_AirTemp_IsbL-0600_RLatLon0.09_PT016H.grib2 2026-05-02 20:43 445K
20260502T18Z_MSC_RDPS_AirTemp_IsbL-0650_RLatLon0.09_PT016H.grib2 2026-05-02 20:43 459K
20260502T18Z_MSC_RDPS_AirTemp_IsbL-0700_RLatLon0.09_PT016H.grib2 2026-05-02 20:43 484K
20260502T18Z_MSC_RDPS_AirTemp_IsbL-0750_RLatLon0.09_PT016H.grib2 2026-05-02 20:43 522K
20260502T18Z_MSC_RDPS_AirTemp_IsbL-0800_RLatLon0.09_PT016H.grib2 2026-05-02 20:43 573K
20260502T18Z_MSC_RDPS_AirTemp_IsbL-0850_RLatLon0.09_PT016H.grib2 2026-05-02 20:43 632K
20260502T18Z_MSC_RDPS_AirTemp_IsbL-0875_RLatLon0.09_PT016H.grib2 2026-05-02 20:43 525K
20260502T18Z_MSC_RDPS_AirTemp_IsbL-0900_RLatLon0.09_PT016H.grib2 2026-05-02 20:43 534K
20260502T18Z_MSC_RDPS_AirTemp_IsbL-0925_RLatLon0.09_PT016H.grib2 2026-05-02 20:43 527K
20260502T18Z_MSC_RDPS_AirTemp_IsbL-0950_RLatLon0.09_PT016H.grib2 2026-05-02 20:43 528K
20260502T18Z_MSC_RDPS_AirTemp_IsbL-0970_RLatLon0.09_PT016H.grib2 2026-05-02 20:43 522K
20260502T18Z_MSC_RDPS_AirTemp_IsbL-0985_RLatLon0.09_PT016H.grib2 2026-05-02 20:43 510K
20260502T18Z_MSC_RDPS_AirTemp_IsbL-1000_RLatLon0.09_PT016H.grib2 2026-05-02 20:43 494K
20260502T18Z_MSC_RDPS_AirTemp_IsbL-1015_RLatLon0.09_PT016H.grib2 2026-05-02 20:43 494K
20260502T18Z_MSC_RDPS_Albedo_Sfc_RLatLon0.09_PT016H.grib2 2026-05-02 20:43 158K
20260502T18Z_MSC_RDPS_CAPE_Sfc_RLatLon0.09_PT016H.grib2 2026-05-02 20:43 1.6M
20260502T18Z_MSC_RDPS_CIN_Sfc_RLatLon0.09_PT016H.grib2 2026-05-02 20:43 1.1M
20260502T18Z_MSC_RDPS_CloudWater_EAtm_RLatLon0.09_PT016H.grib2 2026-05-02 20:43 219K
20260502T18Z_MSC_RDPS_ConvectivePrecip-Accum_Sfc_RLatLon0.09_PT016H.grib2 2026-05-02 20:43 724K
20260502T18Z_MSC_RDPS_DewPointDepression_AGL-2m_RLatLon0.09_PT016H.grib2 2026-05-02 20:43 398K
20260502T18Z_MSC_RDPS_DewPointDepression_IsbL-0001_RLatLon0.09_PT016H.grib2 2026-05-02 20:43 193
20260502T18Z_MSC_RDPS_DewPointDepression_IsbL-0005_RLatLon0.09_PT016H.grib2 2026-05-02 20:43 193
20260502T18Z_MSC_RDPS_DewPointDepression_IsbL-0010_RLatLon0.09_PT016H.grib2 2026-05-02 20:43 193
20260502T18Z_MSC_RDPS_DewPointDepression_IsbL-0020_RLatLon0.09_PT016H.grib2 2026-05-02 20:43 193
20260502T18Z_MSC_RDPS_DewPointDepression_IsbL-0030_RLatLon0.09_PT016H.grib2 2026-05-02 20:43 193
20260502T18Z_MSC_RDPS_DewPointDepression_IsbL-0050_RLatLon0.09_PT016H.grib2 2026-05-02 20:43 105K
20260502T18Z_MSC_RDPS_DewPointDepression_IsbL-0100_RLatLon0.09_PT016H.grib2 2026-05-02 20:43 118K
20260502T18Z_MSC_RDPS_DewPointDepression_IsbL-0150_RLatLon0.09_PT016H.grib2 2026-05-02 20:43 151K
20260502T18Z_MSC_RDPS_DewPointDepression_IsbL-0175_RLatLon0.09_PT016H.grib2 2026-05-02 20:43 186K
20260502T18Z_MSC_RDPS_DewPointDepression_IsbL-0200_RLatLon0.09_PT016H.grib2 2026-05-02 20:43 223K
20260502T18Z_MSC_RDPS_DewPointDepression_IsbL-0225_RLatLon0.09_PT016H.grib2 2026-05-02 20:43 259K
20260502T18Z_MSC_RDPS_DewPointDepression_IsbL-0250_RLatLon0.09_PT016H.grib2 2026-05-02 20:43 296K
20260502T18Z_MSC_RDPS_DewPointDepression_IsbL-0275_RLatLon0.09_PT016H.grib2 2026-05-02 20:43 308K
20260502T18Z_MSC_RDPS_DewPointDepression_IsbL-0300_RLatLon0.09_PT016H.grib2 2026-05-02 20:43 328K
20260502T18Z_MSC_RDPS_DewPointDepression_IsbL-0350_RLatLon0.09_PT016H.grib2 2026-05-02 20:43 334K
20260502T18Z_MSC_RDPS_DewPointDepression_IsbL-0400_RLatLon0.09_PT016H.grib2 2026-05-02 20:43 339K
20260502T18Z_MSC_RDPS_DewPointDepression_IsbL-0450_RLatLon0.09_PT016H.grib2 2026-05-02 20:43 344K
20260502T18Z_MSC_RDPS_DewPointDepression_IsbL-0500_RLatLon0.09_PT016H.grib2 2026-05-02 20:43 350K
20260502T18Z_MSC_RDPS_DewPointDepression_IsbL-0550_RLatLon0.09_PT016H.grib2 2026-05-02 20:43 360K
20260502T18Z_MSC_RDPS_DewPointDepression_IsbL-0600_RLatLon0.09_PT016H.grib2 2026-05-02 20:43 366K
20260502T18Z_MSC_RDPS_DewPointDepression_IsbL-0650_RLatLon0.09_PT016H.grib2 2026-05-02 20:43 374K
20260502T18Z_MSC_RDPS_DewPointDepression_IsbL-0700_RLatLon0.09_PT016H.grib2 2026-05-02 20:43 385K
20260502T18Z_MSC_RDPS_DewPointDepression_IsbL-0750_RLatLon0.09_PT016H.grib2 2026-05-02 20:43 403K
20260502T18Z_MSC_RDPS_DewPointDepression_IsbL-0800_RLatLon0.09_PT016H.grib2 2026-05-02 20:43 438K
20260502T18Z_MSC_RDPS_DewPointDepression_IsbL-0850_RLatLon0.09_PT016H.grib2 2026-05-02 20:43 472K
20260502T18Z_MSC_RDPS_DewPointDepression_IsbL-0875_RLatLon0.09_PT016H.grib2 2026-05-02 20:43 473K
20260502T18Z_MSC_RDPS_DewPointDepression_IsbL-0900_RLatLon0.09_PT016H.grib2 2026-05-02 20:43 460K
20260502T18Z_MSC_RDPS_DewPointDepression_IsbL-0925_RLatLon0.09_PT016H.grib2 2026-05-02 20:43 445K
20260502T18Z_MSC_RDPS_DewPointDepression_IsbL-0950_RLatLon0.09_PT016H.grib2 2026-05-02 20:43 442K
20260502T18Z_MSC_RDPS_DewPointDepression_IsbL-0970_RLatLon0.09_PT016H.grib2 2026-05-02 20:43 436K
20260502T18Z_MSC_RDPS_DewPointDepression_IsbL-0985_RLatLon0.09_PT016H.grib2 2026-05-02 20:43 429K
20260502T18Z_MSC_RDPS_DewPointDepression_IsbL-1000_RLatLon0.09_PT016H.grib2 2026-05-02 20:43 426K
20260502T18Z_MSC_RDPS_DewPointDepression_IsbL-1015_RLatLon0.09_PT016H.grib2 2026-05-02 20:43 418K
20260502T18Z_MSC_RDPS_DewPoint_AGL-2m_RLatLon0.09_PT016H.grib2 2026-05-02 20:43 308K
20260502T18Z_MSC_RDPS_DownwardLongwaveRadiationFlux-Accum_Sfc_RLatLon0.09_PT016H.grib2 2026-05-02 20:43 515K
20260502T18Z_MSC_RDPS_DownwardShortwaveRadiationFlux-Accum_NTAtm_RLatLon0.09_PT016H.grib2 2026-05-02 20:43 103K
20260502T18Z_MSC_RDPS_DownwardShortwaveRadiationFlux-Accum_Sfc_RLatLon0.09_PT016H.grib2 2026-05-02 20:43 546K
20260502T18Z_MSC_RDPS_FreezingRain-Accum1h_Sfc_RLatLon0.09_PT016H.grib2 2026-05-02 20:43 34K
20260502T18Z_MSC_RDPS_FreezingRain-Accum_Sfc_RLatLon0.09_PT016H.grib2 2026-05-02 20:43 82K
20260502T18Z_MSC_RDPS_GeopotentialHeight_IsbL-0001_RLatLon0.09_PT016H.grib2 2026-05-02 20:43 311K
20260502T18Z_MSC_RDPS_GeopotentialHeight_IsbL-0005_RLatLon0.09_PT016H.grib2 2026-05-02 20:43 302K
20260502T18Z_MSC_RDPS_GeopotentialHeight_IsbL-0010_RLatLon0.09_PT016H.grib2 2026-05-02 20:43 303K
20260502T18Z_MSC_RDPS_GeopotentialHeight_IsbL-0020_RLatLon0.09_PT016H.grib2 2026-05-02 20:43 399K
20260502T18Z_MSC_RDPS_GeopotentialHeight_IsbL-0030_RLatLon0.09_PT016H.grib2 2026-05-02 20:43 402K
20260502T18Z_MSC_RDPS_GeopotentialHeight_IsbL-0050_RLatLon0.09_PT016H.grib2 2026-05-02 20:43 309K
20260502T18Z_MSC_RDPS_GeopotentialHeight_IsbL-0100_RLatLon0.09_PT016H.grib2 2026-05-02 20:43 287K
20260502T18Z_MSC_RDPS_GeopotentialHeight_IsbL-0150_RLatLon0.09_PT016H.grib2 2026-05-02 20:43 231K
20260502T18Z_MSC_RDPS_GeopotentialHeight_IsbL-0175_RLatLon0.09_PT016H.grib2 2026-05-02 20:43 234K
20260502T18Z_MSC_RDPS_GeopotentialHeight_IsbL-0200_RLatLon0.09_PT016H.grib2 2026-05-02 20:43 266K
20260502T18Z_MSC_RDPS_GeopotentialHeight_IsbL-0225_RLatLon0.09_PT016H.grib2 2026-05-02 20:43 266K
20260502T18Z_MSC_RDPS_GeopotentialHeight_IsbL-0250_RLatLon0.09_PT016H.grib2 2026-05-02 20:43 267K
20260502T18Z_MSC_RDPS_GeopotentialHeight_IsbL-0275_RLatLon0.09_PT016H.grib2 2026-05-02 20:43 266K
20260502T18Z_MSC_RDPS_GeopotentialHeight_IsbL-0300_RLatLon0.09_PT016H.grib2 2026-05-02 20:43 235K
20260502T18Z_MSC_RDPS_GeopotentialHeight_IsbL-0350_RLatLon0.09_PT016H.grib2 2026-05-02 20:43 231K
20260502T18Z_MSC_RDPS_GeopotentialHeight_IsbL-0400_RLatLon0.09_PT016H.grib2 2026-05-02 20:43 228K
20260502T18Z_MSC_RDPS_GeopotentialHeight_IsbL-0450_RLatLon0.09_PT016H.grib2 2026-05-02 20:43 298K
20260502T18Z_MSC_RDPS_GeopotentialHeight_IsbL-0500_RLatLon0.09_PT016H.grib2 2026-05-02 20:43 293K
20260502T18Z_MSC_RDPS_GeopotentialHeight_IsbL-0550_RLatLon0.09_PT016H.grib2 2026-05-02 20:43 289K
20260502T18Z_MSC_RDPS_GeopotentialHeight_IsbL-0600_RLatLon0.09_PT016H.grib2 2026-05-02 20:43 285K
20260502T18Z_MSC_RDPS_GeopotentialHeight_IsbL-0650_RLatLon0.09_PT016H.grib2 2026-05-02 20:43 255K
20260502T18Z_MSC_RDPS_GeopotentialHeight_IsbL-0700_RLatLon0.09_PT016H.grib2 2026-05-02 20:43 254K
20260502T18Z_MSC_RDPS_GeopotentialHeight_IsbL-0750_RLatLon0.09_PT016H.grib2 2026-05-02 20:43 257K
20260502T18Z_MSC_RDPS_GeopotentialHeight_IsbL-0800_RLatLon0.09_PT016H.grib2 2026-05-02 20:43 350K
20260502T18Z_MSC_RDPS_GeopotentialHeight_IsbL-0850_RLatLon0.09_PT016H.grib2 2026-05-02 20:43 359K
20260502T18Z_MSC_RDPS_GeopotentialHeight_IsbL-0875_RLatLon0.09_PT016H.grib2 2026-05-02 20:43 359K
20260502T18Z_MSC_RDPS_GeopotentialHeight_IsbL-0900_RLatLon0.09_PT016H.grib2 2026-05-02 20:43 365K
20260502T18Z_MSC_RDPS_GeopotentialHeight_IsbL-0925_RLatLon0.09_PT016H.grib2 2026-05-02 20:43 368K
20260502T18Z_MSC_RDPS_GeopotentialHeight_IsbL-0950_RLatLon0.09_PT016H.grib2 2026-05-02 20:43 369K
20260502T18Z_MSC_RDPS_GeopotentialHeight_IsbL-0970_RLatLon0.09_PT016H.grib2 2026-05-02 20:43 376K
20260502T18Z_MSC_RDPS_GeopotentialHeight_IsbL-0985_RLatLon0.09_PT016H.grib2 2026-05-02 20:43 384K
20260502T18Z_MSC_RDPS_GeopotentialHeight_IsbL-1000_RLatLon0.09_PT016H.grib2 2026-05-02 20:43 396K
20260502T18Z_MSC_RDPS_GeopotentialHeight_IsbL-1015_RLatLon0.09_PT016H.grib2 2026-05-02 20:43 411K
20260502T18Z_MSC_RDPS_Humidex_Sfc_RLatLon0.09_PT016H.grib2 2026-05-02 20:43 2.4M
20260502T18Z_MSC_RDPS_IcePellets-Accum1h_Sfc_RLatLon0.09_PT016H.grib2 2026-05-02 20:43 3.6K
20260502T18Z_MSC_RDPS_IcePellets-Accum_Sfc_RLatLon0.09_PT016H.grib2 2026-05-02 20:43 11K
20260502T18Z_MSC_RDPS_KIndex_Sfc_RLatLon0.09_PT016H.grib2 2026-05-02 20:43 2.4M
20260502T18Z_MSC_RDPS_LatentHeatNetFlux_Sfc_RLatLon0.09_PT016H.grib2 2026-05-02 20:43 410K
20260502T18Z_MSC_RDPS_LiftedIndex-MU-VT_IsbL-0500_RLatLon0.09_PT016H.grib2 2026-05-02 20:43 2.4M
20260502T18Z_MSC_RDPS_NetLongwaveRadiationFlux-Accum_Sfc_RLatLon0.09_PT016H.grib2 2026-05-02 20:43 523K
20260502T18Z_MSC_RDPS_NetShortwaveRadiationFlux-Accum_Sfc_RLatLon0.09_PT016H.grib2 2026-05-02 20:43 537K
20260502T18Z_MSC_RDPS_PlanetaryBoundaryLayerHeight_Sfc_RLatLon0.09_PT016H.grib2 2026-05-02 20:43 1.1M
20260502T18Z_MSC_RDPS_Precip-Accum1h_Sfc_RLatLon0.09_PT016H.grib2 2026-05-02 20:43 1.2M
20260502T18Z_MSC_RDPS_Precip-Accum_Sfc_RLatLon0.09_PT016H.grib2 2026-05-02 20:43 1.7M
20260502T18Z_MSC_RDPS_PrecipRate_Sfc_RLatLon0.09_PT016H.grib2 2026-05-02 20:43 189K
20260502T18Z_MSC_RDPS_PrecipType-Instant_Sfc_RLatLon0.09_PT016H.grib2 2026-05-02 20:43 606K
20260502T18Z_MSC_RDPS_Pressure-Trend3h_Sfc_RLatLon0.09_PT016H.grib2 2026-05-02 20:43 1.2M
20260502T18Z_MSC_RDPS_Pressure_MSL_RLatLon0.09_PT016H.grib2 2026-05-02 20:43 326K
20260502T18Z_MSC_RDPS_Pressure_PVU-1.5_RLatLon0.09_PT016H.grib2 2026-05-02 20:43 2.3M
20260502T18Z_MSC_RDPS_Pressure_PVU-1_RLatLon0.09_PT016H.grib2 2026-05-02 20:43 2.4M
20260502T18Z_MSC_RDPS_Pressure_PVU-2_RLatLon0.09_PT016H.grib2 2026-05-02 20:43 2.4M
20260502T18Z_MSC_RDPS_Pressure_Sfc_RLatLon0.09_PT016H.grib2 2026-05-02 20:43 501K
20260502T18Z_MSC_RDPS_RadiativeTemp_Sfc_RLatLon0.09_PT016H.grib2 2026-05-02 20:43 305K
20260502T18Z_MSC_RDPS_Rain-Accum1h_Sfc_RLatLon0.09_PT016H.grib2 2026-05-02 20:43 628K
20260502T18Z_MSC_RDPS_Rain-Accum_Sfc_RLatLon0.09_PT016H.grib2 2026-05-02 20:43 1.3M
20260502T18Z_MSC_RDPS_RelativeHumidity_AGL-2m_RLatLon0.09_PT016H.grib2 2026-05-02 20:43 1.0M
20260502T18Z_MSC_RDPS_RelativeHumidity_IsbL-0010_RLatLon0.09_PT016H.grib2 2026-05-02 20:43 744K
20260502T18Z_MSC_RDPS_RelativeHumidity_IsbL-0020_RLatLon0.09_PT016H.grib2 2026-05-02 20:43 677K
20260502T18Z_MSC_RDPS_RelativeHumidity_IsbL-0030_RLatLon0.09_PT016H.grib2 2026-05-02 20:43 602K
20260502T18Z_MSC_RDPS_RelativeHumidity_IsbL-0050_RLatLon0.09_PT016H.grib2 2026-05-02 20:43 358K
20260502T18Z_MSC_RDPS_RelativeHumidity_IsbL-0100_RLatLon0.09_PT016H.grib2 2026-05-02 20:43 280K
20260502T18Z_MSC_RDPS_RelativeHumidity_IsbL-0150_RLatLon0.09_PT016H.grib2 2026-05-02 20:43 419K
20260502T18Z_MSC_RDPS_RelativeHumidity_IsbL-0175_RLatLon0.09_PT016H.grib2 2026-05-02 20:43 479K
20260502T18Z_MSC_RDPS_RelativeHumidity_IsbL-0200_RLatLon0.09_PT016H.grib2 2026-05-02 20:43 556K
20260502T18Z_MSC_RDPS_RelativeHumidity_IsbL-0225_RLatLon0.09_PT016H.grib2 2026-05-02 20:43 618K
20260502T18Z_MSC_RDPS_RelativeHumidity_IsbL-0250_RLatLon0.09_PT016H.grib2 2026-05-02 20:43 682K
20260502T18Z_MSC_RDPS_RelativeHumidity_IsbL-0275_RLatLon0.09_PT016H.grib2 2026-05-02 20:43 708K
20260502T18Z_MSC_RDPS_RelativeHumidity_IsbL-0300_RLatLon0.09_PT016H.grib2 2026-05-02 20:43 750K
20260502T18Z_MSC_RDPS_RelativeHumidity_IsbL-0350_RLatLon0.09_PT016H.grib2 2026-05-02 20:43 777K
20260502T18Z_MSC_RDPS_RelativeHumidity_IsbL-0400_RLatLon0.09_PT016H.grib2 2026-05-02 20:43 785K
20260502T18Z_MSC_RDPS_RelativeHumidity_IsbL-0450_RLatLon0.09_PT016H.grib2 2026-05-02 20:43 789K
20260502T18Z_MSC_RDPS_RelativeHumidity_IsbL-0500_RLatLon0.09_PT016H.grib2 2026-05-02 20:43 808K
20260502T18Z_MSC_RDPS_RelativeHumidity_IsbL-0550_RLatLon0.09_PT016H.grib2 2026-05-02 20:43 814K
20260502T18Z_MSC_RDPS_RelativeHumidity_IsbL-0600_RLatLon0.09_PT016H.grib2 2026-05-02 20:43 831K
20260502T18Z_MSC_RDPS_RelativeHumidity_IsbL-0650_RLatLon0.09_PT016H.grib2 2026-05-02 20:43 844K
20260502T18Z_MSC_RDPS_RelativeHumidity_IsbL-0700_RLatLon0.09_PT016H.grib2 2026-05-02 20:43 870K
20260502T18Z_MSC_RDPS_RelativeHumidity_IsbL-0750_RLatLon0.09_PT016H.grib2 2026-05-02 20:43 920K
20260502T18Z_MSC_RDPS_RelativeHumidity_IsbL-0800_RLatLon0.09_PT016H.grib2 2026-05-02 20:43 1.0M
20260502T18Z_MSC_RDPS_RelativeHumidity_IsbL-0850_RLatLon0.09_PT016H.grib2 2026-05-02 20:43 1.0M
20260502T18Z_MSC_RDPS_RelativeHumidity_IsbL-0875_RLatLon0.09_PT016H.grib2 2026-05-02 20:43 1.1M
20260502T18Z_MSC_RDPS_RelativeHumidity_IsbL-0900_RLatLon0.09_PT016H.grib2 2026-05-02 20:43 1.1M
20260502T18Z_MSC_RDPS_RelativeHumidity_IsbL-0925_RLatLon0.09_PT016H.grib2 2026-05-02 20:43 1.1M
20260502T18Z_MSC_RDPS_RelativeHumidity_IsbL-0950_RLatLon0.09_PT016H.grib2 2026-05-02 20:43 1.1M
20260502T18Z_MSC_RDPS_RelativeHumidity_IsbL-0970_RLatLon0.09_PT016H.grib2 2026-05-02 20:43 1.0M
20260502T18Z_MSC_RDPS_RelativeHumidity_IsbL-0985_RLatLon0.09_PT016H.grib2 2026-05-02 20:43 1.0M
20260502T18Z_MSC_RDPS_RelativeHumidity_IsbL-1000_RLatLon0.09_PT016H.grib2 2026-05-02 20:43 1.0M
20260502T18Z_MSC_RDPS_RelativeHumidity_IsbL-1015_RLatLon0.09_PT016H.grib2 2026-05-02 20:43 1.0M
20260502T18Z_MSC_RDPS_Runoff-Accum_Sfc_RLatLon0.09_PT016H.grib2 2026-05-02 20:43 61K
20260502T18Z_MSC_RDPS_SWEATIndex_Sfc_RLatLon0.09_PT016H.grib2 2026-05-02 20:43 2.4M
20260502T18Z_MSC_RDPS_SeeingIndex_EAtm_RLatLon0.09_PT016H.grib2 2026-05-02 20:43 1.0M
20260502T18Z_MSC_RDPS_SensibleHeatNetFlux_Sfc_RLatLon0.09_PT016H.grib2 2026-05-02 20:43 298K
20260502T18Z_MSC_RDPS_ShowalterIndex_IsbL-0500_RLatLon0.09_PT016H.grib2 2026-05-02 20:43 2.6M
20260502T18Z_MSC_RDPS_SkyTransparencyIndex_EAtm_RLatLon0.09_PT016H.grib2 2026-05-02 20:43 700K
20260502T18Z_MSC_RDPS_Snow-Accum1h_Sfc_RLatLon0.09_PT016H.grib2 2026-05-02 20:43 445K
20260502T18Z_MSC_RDPS_Snow-Accum_Sfc_RLatLon0.09_PT016H.grib2 2026-05-02 20:43 633K
20260502T18Z_MSC_RDPS_SnowDensity_Sfc_RLatLon0.09_PT016H.grib2 2026-05-02 20:43 167K
20260502T18Z_MSC_RDPS_SnowDepth_Sfc_RLatLon0.09_PT016H.grib2 2026-05-02 20:43 651K
20260502T18Z_MSC_RDPS_SoilTemp_DBS-0to10cm_RLatLon0.09_PT016H.grib2 2026-05-02 20:43 218K
20260502T18Z_MSC_RDPS_SoilTemp_Sfc_RLatLon0.09_PT016H.grib2 2026-05-02 20:43 286K
20260502T18Z_MSC_RDPS_SoilVolumetricIceContent_Sfc_RLatLon0.09_PT016H.grib2 2026-05-02 20:43 158K
20260502T18Z_MSC_RDPS_SoilVolumetricWaterContent_DBS-0to10cm_RLatLon0.09_PT016H.grib2 2026-05-02 20:43 273K
20260502T18Z_MSC_RDPS_SoilVolumetricWaterContent_DBS-0to1cm_RLatLon0.09_PT016H.grib2 2026-05-02 20:43 339K
20260502T18Z_MSC_RDPS_SpecificHumidity_AGL-120m_RLatLon0.09_PT016H.grib2 2026-05-02 20:43 489K
20260502T18Z_MSC_RDPS_SpecificHumidity_AGL-2m_RLatLon0.09_PT016H.grib2 2026-05-02 20:43 654K
20260502T18Z_MSC_RDPS_SpecificHumidity_AGL-40m_RLatLon0.09_PT016H.grib2 2026-05-02 20:43 495K
20260502T18Z_MSC_RDPS_SpecificHumidity_AGL-80m_RLatLon0.09_PT016H.grib2 2026-05-02 20:43 491K
20260502T18Z_MSC_RDPS_SpecificHumidity_IsbL-0001_RLatLon0.09_PT016H.grib2 2026-05-02 20:43 349K
20260502T18Z_MSC_RDPS_SpecificHumidity_IsbL-0005_RLatLon0.09_PT016H.grib2 2026-05-02 20:43 365K
20260502T18Z_MSC_RDPS_SpecificHumidity_IsbL-0010_RLatLon0.09_PT016H.grib2 2026-05-02 20:43 397K
20260502T18Z_MSC_RDPS_SpecificHumidity_IsbL-0020_RLatLon0.09_PT016H.grib2 2026-05-02 20:43 379K
20260502T18Z_MSC_RDPS_SpecificHumidity_IsbL-0030_RLatLon0.09_PT016H.grib2 2026-05-02 20:43 372K
20260502T18Z_MSC_RDPS_SpecificHumidity_IsbL-0050_RLatLon0.09_PT016H.grib2 2026-05-02 20:43 488K
20260502T18Z_MSC_RDPS_SpecificHumidity_IsbL-0100_RLatLon0.09_PT016H.grib2 2026-05-02 20:43 446K
20260502T18Z_MSC_RDPS_SpecificHumidity_IsbL-0150_RLatLon0.09_PT016H.grib2 2026-05-02 20:43 459K
20260502T18Z_MSC_RDPS_SpecificHumidity_IsbL-0175_RLatLon0.09_PT016H.grib2 2026-05-02 20:43 441K
20260502T18Z_MSC_RDPS_SpecificHumidity_IsbL-0200_RLatLon0.09_PT016H.grib2 2026-05-02 20:43 458K
20260502T18Z_MSC_RDPS_SpecificHumidity_IsbL-0225_RLatLon0.09_PT016H.grib2 2026-05-02 20:43 456K
20260502T18Z_MSC_RDPS_SpecificHumidity_IsbL-0250_RLatLon0.09_PT016H.grib2 2026-05-02 20:43 559K
20260502T18Z_MSC_RDPS_SpecificHumidity_IsbL-0275_RLatLon0.09_PT016H.grib2 2026-05-02 20:43 475K
20260502T18Z_MSC_RDPS_SpecificHumidity_IsbL-0300_RLatLon0.09_PT016H.grib2 2026-05-02 20:43 449K
20260502T18Z_MSC_RDPS_SpecificHumidity_IsbL-0350_RLatLon0.09_PT016H.grib2 2026-05-02 20:43 447K
20260502T18Z_MSC_RDPS_SpecificHumidity_IsbL-0400_RLatLon0.09_PT016H.grib2 2026-05-02 20:43 520K
20260502T18Z_MSC_RDPS_SpecificHumidity_IsbL-0450_RLatLon0.09_PT016H.grib2 2026-05-02 20:43 570K
20260502T18Z_MSC_RDPS_SpecificHumidity_IsbL-0500_RLatLon0.09_PT016H.grib2 2026-05-02 20:43 505K
20260502T18Z_MSC_RDPS_SpecificHumidity_IsbL-0550_RLatLon0.09_PT016H.grib2 2026-05-02 20:43 577K
20260502T18Z_MSC_RDPS_SpecificHumidity_IsbL-0600_RLatLon0.09_PT016H.grib2 2026-05-02 20:43 626K
20260502T18Z_MSC_RDPS_SpecificHumidity_IsbL-0650_RLatLon0.09_PT016H.grib2 2026-05-02 20:43 542K
20260502T18Z_MSC_RDPS_SpecificHumidity_IsbL-0700_RLatLon0.09_PT016H.grib2 2026-05-02 20:43 586K
20260502T18Z_MSC_RDPS_SpecificHumidity_IsbL-0750_RLatLon0.09_PT016H.grib2 2026-05-02 20:43 640K
20260502T18Z_MSC_RDPS_SpecificHumidity_IsbL-0800_RLatLon0.09_PT016H.grib2 2026-05-02 20:43 712K
20260502T18Z_MSC_RDPS_SpecificHumidity_IsbL-0850_RLatLon0.09_PT016H.grib2 2026-05-02 20:43 800K
20260502T18Z_MSC_RDPS_SpecificHumidity_IsbL-0875_RLatLon0.09_PT016H.grib2 2026-05-02 20:43 829K
20260502T18Z_MSC_RDPS_SpecificHumidity_IsbL-0900_RLatLon0.09_PT016H.grib2 2026-05-02 20:43 840K
20260502T18Z_MSC_RDPS_SpecificHumidity_IsbL-0925_RLatLon0.09_PT016H.grib2 2026-05-02 20:43 836K
20260502T18Z_MSC_RDPS_SpecificHumidity_IsbL-0950_RLatLon0.09_PT016H.grib2 2026-05-02 20:43 838K
20260502T18Z_MSC_RDPS_SpecificHumidity_IsbL-0970_RLatLon0.09_PT016H.grib2 2026-05-02 20:43 690K
20260502T18Z_MSC_RDPS_SpecificHumidity_IsbL-0985_RLatLon0.09_PT016H.grib2 2026-05-02 20:43 683K
20260502T18Z_MSC_RDPS_SpecificHumidity_IsbL-1000_RLatLon0.09_PT016H.grib2 2026-05-02 20:43 677K
20260502T18Z_MSC_RDPS_SpecificHumidity_IsbL-1015_RLatLon0.09_PT016H.grib2 2026-05-02 20:43 667K
20260502T18Z_MSC_RDPS_SpecificHumidity_Sfc_RLatLon0.09_PT016H.grib2 2026-05-02 20:43 292K
20260502T18Z_MSC_RDPS_StormRelativeHelicity_EtaL-10000_RLatLon0.09_PT016H.grib2 2026-05-02 20:43 1.1M
20260502T18Z_MSC_RDPS_StormSeverityIndex_EtaL-10000_RLatLon0.09_PT016H.grib2 2026-05-02 20:43 1.2M
20260502T18Z_MSC_RDPS_Thickness_IsbL-0850to0700_RLatLon0.09_PT016H.grib2 2026-05-02 20:43 177K
20260502T18Z_MSC_RDPS_Thickness_IsbL-1000to0500_RLatLon0.09_PT016H.grib2 2026-05-02 20:43 195K
20260502T18Z_MSC_RDPS_Thickness_IsbL-1000to0850_RLatLon0.09_PT016H.grib2 2026-05-02 20:43 262K
20260502T18Z_MSC_RDPS_TotalCloudCover_Sfc_RLatLon0.09_PT016H.grib2 2026-05-02 20:43 666K
20260502T18Z_MSC_RDPS_TotalTotalsIndex_Sfc_RLatLon0.09_PT016H.grib2 2026-05-02 20:43 2.3M
20260502T18Z_MSC_RDPS_UVIndex-ClearSky_Sfc_RLatLon0.09_PT016H.grib2 2026-05-02 20:43 95K
20260502T18Z_MSC_RDPS_UVIndex_Sfc_RLatLon0.09_PT016H.grib2 2026-05-02 20:43 208K
20260502T18Z_MSC_RDPS_UpwardLongwaveRadiationFlux_NTAtm_RLatLon0.09_PT016H.grib2 2026-05-02 20:43 493K
20260502T18Z_MSC_RDPS_UpwardShortwaveRadiationFlux_NTAtm_RLatLon0.09_PT016H.grib2 2026-05-02 20:43 205K
20260502T18Z_MSC_RDPS_VerticalVelocity_IsbL-0250_RLatLon0.09_PT016H.grib2 2026-05-02 20:43 437K
20260502T18Z_MSC_RDPS_VerticalVelocity_IsbL-0500_RLatLon0.09_PT016H.grib2 2026-05-02 20:43 543K
20260502T18Z_MSC_RDPS_VerticalVelocity_IsbL-0700_RLatLon0.09_PT016H.grib2 2026-05-02 20:43 592K
20260502T18Z_MSC_RDPS_VerticalVelocity_IsbL-0850_RLatLon0.09_PT016H.grib2 2026-05-02 20:43 703K
20260502T18Z_MSC_RDPS_VerticalWindShear_EtaL-6500_RLatLon0.09_PT016H.grib2 2026-05-02 20:43 1.2M
20260502T18Z_MSC_RDPS_WindChill_Sfc_RLatLon0.09_PT016H.grib2 2026-05-02 20:43 1.2M
20260502T18Z_MSC_RDPS_WindDir_AGL-10m_RLatLon0.09_PT016H.grib2 2026-05-02 20:43 1.0M
20260502T18Z_MSC_RDPS_WindDir_AGL-120m_RLatLon0.09_PT016H.grib2 2026-05-02 20:43 607K
20260502T18Z_MSC_RDPS_WindDir_AGL-40m_RLatLon0.09_PT016H.grib2 2026-05-02 20:43 643K
20260502T18Z_MSC_RDPS_WindDir_AGL-80m_RLatLon0.09_PT016H.grib2 2026-05-02 20:43 620K
20260502T18Z_MSC_RDPS_WindDir_IsbL-0001_RLatLon0.09_PT016H.grib2 2026-05-02 20:43 305K
20260502T18Z_MSC_RDPS_WindDir_IsbL-0005_RLatLon0.09_PT016H.grib2 2026-05-02 20:43 385K
20260502T18Z_MSC_RDPS_WindDir_IsbL-0010_RLatLon0.09_PT016H.grib2 2026-05-02 20:43 390K
20260502T18Z_MSC_RDPS_WindDir_IsbL-0020_RLatLon0.09_PT016H.grib2 2026-05-02 20:43 426K
20260502T18Z_MSC_RDPS_WindDir_IsbL-0030_RLatLon0.09_PT016H.grib2 2026-05-02 20:43 421K
20260502T18Z_MSC_RDPS_WindDir_IsbL-0050_RLatLon0.09_PT016H.grib2 2026-05-02 20:43 412K
20260502T18Z_MSC_RDPS_WindDir_IsbL-0100_RLatLon0.09_PT016H.grib2 2026-05-02 20:43 408K
20260502T18Z_MSC_RDPS_WindDir_IsbL-0150_RLatLon0.09_PT016H.grib2 2026-05-02 20:43 420K
20260502T18Z_MSC_RDPS_WindDir_IsbL-0175_RLatLon0.09_PT016H.grib2 2026-05-02 20:43 426K
20260502T18Z_MSC_RDPS_WindDir_IsbL-0200_RLatLon0.09_PT016H.grib2 2026-05-02 20:43 444K
20260502T18Z_MSC_RDPS_WindDir_IsbL-0225_RLatLon0.09_PT016H.grib2 2026-05-02 20:43 454K
20260502T18Z_MSC_RDPS_WindDir_IsbL-0250_RLatLon0.09_PT016H.grib2 2026-05-02 20:43 458K
20260502T18Z_MSC_RDPS_WindDir_IsbL-0275_RLatLon0.09_PT016H.grib2 2026-05-02 20:43 477K
20260502T18Z_MSC_RDPS_WindDir_IsbL-0300_RLatLon0.09_PT016H.grib2 2026-05-02 20:43 480K
20260502T18Z_MSC_RDPS_WindDir_IsbL-0350_RLatLon0.09_PT016H.grib2 2026-05-02 20:43 507K
20260502T18Z_MSC_RDPS_WindDir_IsbL-0400_RLatLon0.09_PT016H.grib2 2026-05-02 20:43 523K
20260502T18Z_MSC_RDPS_WindDir_IsbL-0450_RLatLon0.09_PT016H.grib2 2026-05-02 20:43 533K
20260502T18Z_MSC_RDPS_WindDir_IsbL-0500_RLatLon0.09_PT016H.grib2 2026-05-02 20:43 541K
20260502T18Z_MSC_RDPS_WindDir_IsbL-0550_RLatLon0.09_PT016H.grib2 2026-05-02 20:43 553K
20260502T18Z_MSC_RDPS_WindDir_IsbL-0600_RLatLon0.09_PT016H.grib2 2026-05-02 20:43 577K
20260502T18Z_MSC_RDPS_WindDir_IsbL-0650_RLatLon0.09_PT016H.grib2 2026-05-02 20:43 612K
20260502T18Z_MSC_RDPS_WindDir_IsbL-0700_RLatLon0.09_PT016H.grib2 2026-05-02 20:43 656K
20260502T18Z_MSC_RDPS_WindDir_IsbL-0750_RLatLon0.09_PT016H.grib2 2026-05-02 20:43 700K
20260502T18Z_MSC_RDPS_WindDir_IsbL-0800_RLatLon0.09_PT016H.grib2 2026-05-02 20:43 774K
20260502T18Z_MSC_RDPS_WindDir_IsbL-0850_RLatLon0.09_PT016H.grib2 2026-05-02 20:43 865K
20260502T18Z_MSC_RDPS_WindDir_IsbL-0875_RLatLon0.09_PT016H.grib2 2026-05-02 20:43 898K
20260502T18Z_MSC_RDPS_WindDir_IsbL-0900_RLatLon0.09_PT016H.grib2 2026-05-02 20:43 912K
20260502T18Z_MSC_RDPS_WindDir_IsbL-0925_RLatLon0.09_PT016H.grib2 2026-05-02 20:43 924K
20260502T18Z_MSC_RDPS_WindDir_IsbL-0950_RLatLon0.09_PT016H.grib2 2026-05-02 20:43 923K
20260502T18Z_MSC_RDPS_WindDir_IsbL-0970_RLatLon0.09_PT016H.grib2 2026-05-02 20:43 929K
20260502T18Z_MSC_RDPS_WindDir_IsbL-0985_RLatLon0.09_PT016H.grib2 2026-05-02 20:43 938K
20260502T18Z_MSC_RDPS_WindDir_IsbL-1000_RLatLon0.09_PT016H.grib2 2026-05-02 20:43 953K
20260502T18Z_MSC_RDPS_WindDir_IsbL-1015_RLatLon0.09_PT016H.grib2 2026-05-02 20:43 971K
20260502T18Z_MSC_RDPS_WindGust-Max_AGL-10m_RLatLon0.09_PT016H.grib2 2026-05-02 20:43 1.0M
20260502T18Z_MSC_RDPS_WindGust-Min_AGL-10m_RLatLon0.09_PT016H.grib2 2026-05-02 20:43 1.0M
20260502T18Z_MSC_RDPS_WindGust_AGL-10m_RLatLon0.09_PT016H.grib2 2026-05-02 20:43 1.0M
20260502T18Z_MSC_RDPS_WindSpeed_AGL-10m_RLatLon0.09_PT016H.grib2 2026-05-02 20:43 847K
20260502T18Z_MSC_RDPS_WindSpeed_AGL-120m_RLatLon0.09_PT016H.grib2 2026-05-02 20:43 546K
20260502T18Z_MSC_RDPS_WindSpeed_AGL-40m_RLatLon0.09_PT016H.grib2 2026-05-02 20:43 548K
20260502T18Z_MSC_RDPS_WindSpeed_AGL-80m_RLatLon0.09_PT016H.grib2 2026-05-02 20:43 547K
20260502T18Z_MSC_RDPS_WindSpeed_IsbL-0001_RLatLon0.09_PT016H.grib2 2026-05-02 20:43 248K
20260502T18Z_MSC_RDPS_WindSpeed_IsbL-0005_RLatLon0.09_PT016H.grib2 2026-05-02 20:43 376K
20260502T18Z_MSC_RDPS_WindSpeed_IsbL-0010_RLatLon0.09_PT016H.grib2 2026-05-02 20:43 356K
20260502T18Z_MSC_RDPS_WindSpeed_IsbL-0020_RLatLon0.09_PT016H.grib2 2026-05-02 20:43 414K
20260502T18Z_MSC_RDPS_WindSpeed_IsbL-0030_RLatLon0.09_PT016H.grib2 2026-05-02 20:43 319K
20260502T18Z_MSC_RDPS_WindSpeed_IsbL-0050_RLatLon0.09_PT016H.grib2 2026-05-02 20:43 349K
20260502T18Z_MSC_RDPS_WindSpeed_IsbL-0100_RLatLon0.09_PT016H.grib2 2026-05-02 20:43 478K
20260502T18Z_MSC_RDPS_WindSpeed_IsbL-0150_RLatLon0.09_PT016H.grib2 2026-05-02 20:43 387K
20260502T18Z_MSC_RDPS_WindSpeed_IsbL-0175_RLatLon0.09_PT016H.grib2 2026-05-02 20:43 429K
20260502T18Z_MSC_RDPS_WindSpeed_IsbL-0200_RLatLon0.09_PT016H.grib2 2026-05-02 20:43 443K
20260502T18Z_MSC_RDPS_WindSpeed_IsbL-0225_RLatLon0.09_PT016H.grib2 2026-05-02 20:43 452K
20260502T18Z_MSC_RDPS_WindSpeed_IsbL-0250_RLatLon0.09_PT016H.grib2 2026-05-02 20:43 456K
20260502T18Z_MSC_RDPS_WindSpeed_IsbL-0275_RLatLon0.09_PT016H.grib2 2026-05-02 20:43 473K
20260502T18Z_MSC_RDPS_WindSpeed_IsbL-0300_RLatLon0.09_PT016H.grib2 2026-05-02 20:43 469K
20260502T18Z_MSC_RDPS_WindSpeed_IsbL-0350_RLatLon0.09_PT016H.grib2 2026-05-02 20:43 479K
20260502T18Z_MSC_RDPS_WindSpeed_IsbL-0400_RLatLon0.09_PT016H.grib2 2026-05-02 20:43 466K
20260502T18Z_MSC_RDPS_WindSpeed_IsbL-0450_RLatLon0.09_PT016H.grib2 2026-05-02 20:43 465K
20260502T18Z_MSC_RDPS_WindSpeed_IsbL-0500_RLatLon0.09_PT016H.grib2 2026-05-02 20:43 465K
20260502T18Z_MSC_RDPS_WindSpeed_IsbL-0550_RLatLon0.09_PT016H.grib2 2026-05-02 20:43 468K
20260502T18Z_MSC_RDPS_WindSpeed_IsbL-0600_RLatLon0.09_PT016H.grib2 2026-05-02 20:43 594K
20260502T18Z_MSC_RDPS_WindSpeed_IsbL-0650_RLatLon0.09_PT016H.grib2 2026-05-02 20:43 612K
20260502T18Z_MSC_RDPS_WindSpeed_IsbL-0700_RLatLon0.09_PT016H.grib2 2026-05-02 20:43 637K
20260502T18Z_MSC_RDPS_WindSpeed_IsbL-0750_RLatLon0.09_PT016H.grib2 2026-05-02 20:43 712K
20260502T18Z_MSC_RDPS_WindSpeed_IsbL-0800_RLatLon0.09_PT016H.grib2 2026-05-02 20:43 763K
20260502T18Z_MSC_RDPS_WindSpeed_IsbL-0850_RLatLon0.09_PT016H.grib2 2026-05-02 20:43 824K
20260502T18Z_MSC_RDPS_WindSpeed_IsbL-0875_RLatLon0.09_PT016H.grib2 2026-05-02 20:43 847K
20260502T18Z_MSC_RDPS_WindSpeed_IsbL-0900_RLatLon0.09_PT016H.grib2 2026-05-02 20:43 859K
20260502T18Z_MSC_RDPS_WindSpeed_IsbL-0925_RLatLon0.09_PT016H.grib2 2026-05-02 20:43 868K
20260502T18Z_MSC_RDPS_WindSpeed_IsbL-0950_RLatLon0.09_PT016H.grib2 2026-05-02 20:43 867K
20260502T18Z_MSC_RDPS_WindSpeed_IsbL-0970_RLatLon0.09_PT016H.grib2 2026-05-02 20:43 869K
20260502T18Z_MSC_RDPS_WindSpeed_IsbL-0985_RLatLon0.09_PT016H.grib2 2026-05-02 20:43 863K
20260502T18Z_MSC_RDPS_WindSpeed_IsbL-1000_RLatLon0.09_PT016H.grib2 2026-05-02 20:43 857K
20260502T18Z_MSC_RDPS_WindSpeed_IsbL-1015_RLatLon0.09_PT016H.grib2 2026-05-02 20:43 846K
20260502T18Z_MSC_RDPS_WindU_AGL-10m_RLatLon0.09_PT016H.grib2 2026-05-02 20:43 435K
20260502T18Z_MSC_RDPS_WindU_AGL-120m_RLatLon0.09_PT016H.grib2 2026-05-02 20:43 541K
20260502T18Z_MSC_RDPS_WindU_AGL-40m_RLatLon0.09_PT016H.grib2 2026-05-02 20:43 544K
20260502T18Z_MSC_RDPS_WindU_AGL-80m_RLatLon0.09_PT016H.grib2 2026-05-02 20:43 542K
20260502T18Z_MSC_RDPS_WindU_IsbL-0001_RLatLon0.09_PT016H.grib2 2026-05-02 20:43 239K
20260502T18Z_MSC_RDPS_WindU_IsbL-0005_RLatLon0.09_PT016H.grib2 2026-05-02 20:43 277K
20260502T18Z_MSC_RDPS_WindU_IsbL-0010_RLatLon0.09_PT016H.grib2 2026-05-02 20:43 290K
20260502T18Z_MSC_RDPS_WindU_IsbL-0020_RLatLon0.09_PT016H.grib2 2026-05-02 20:43 309K
20260502T18Z_MSC_RDPS_WindU_IsbL-0030_RLatLon0.09_PT016H.grib2 2026-05-02 20:43 350K
20260502T18Z_MSC_RDPS_WindU_IsbL-0050_RLatLon0.09_PT016H.grib2 2026-05-02 20:43 376K
20260502T18Z_MSC_RDPS_WindU_IsbL-0100_RLatLon0.09_PT016H.grib2 2026-05-02 20:43 432K
20260502T18Z_MSC_RDPS_WindU_IsbL-0150_RLatLon0.09_PT016H.grib2 2026-05-02 20:43 401K
20260502T18Z_MSC_RDPS_WindU_IsbL-0175_RLatLon0.09_PT016H.grib2 2026-05-02 20:43 420K
20260502T18Z_MSC_RDPS_WindU_IsbL-0200_RLatLon0.09_PT016H.grib2 2026-05-02 20:43 338K
20260502T18Z_MSC_RDPS_WindU_IsbL-0225_RLatLon0.09_PT016H.grib2 2026-05-02 20:43 344K
20260502T18Z_MSC_RDPS_WindU_IsbL-0250_RLatLon0.09_PT016H.grib2 2026-05-02 20:43 345K
20260502T18Z_MSC_RDPS_WindU_IsbL-0275_RLatLon0.09_PT016H.grib2 2026-05-02 20:43 360K
20260502T18Z_MSC_RDPS_WindU_IsbL-0300_RLatLon0.09_PT016H.grib2 2026-05-02 20:43 356K
20260502T18Z_MSC_RDPS_WindU_IsbL-0350_RLatLon0.09_PT016H.grib2 2026-05-02 20:43 364K
20260502T18Z_MSC_RDPS_WindU_IsbL-0400_RLatLon0.09_PT016H.grib2 2026-05-02 20:43 470K
20260502T18Z_MSC_RDPS_WindU_IsbL-0450_RLatLon0.09_PT016H.grib2 2026-05-02 20:43 470K
20260502T18Z_MSC_RDPS_WindU_IsbL-0500_RLatLon0.09_PT016H.grib2 2026-05-02 20:43 472K
20260502T18Z_MSC_RDPS_WindU_IsbL-0550_RLatLon0.09_PT016H.grib2 2026-05-02 20:43 474K
20260502T18Z_MSC_RDPS_WindU_IsbL-0600_RLatLon0.09_PT016H.grib2 2026-05-02 20:43 481K
20260502T18Z_MSC_RDPS_WindU_IsbL-0650_RLatLon0.09_PT016H.grib2 2026-05-02 20:43 482K
20260502T18Z_MSC_RDPS_WindU_IsbL-0700_RLatLon0.09_PT016H.grib2 2026-05-02 20:43 504K
20260502T18Z_MSC_RDPS_WindU_IsbL-0750_RLatLon0.09_PT016H.grib2 2026-05-02 20:43 532K
20260502T18Z_MSC_RDPS_WindU_IsbL-0800_RLatLon0.09_PT016H.grib2 2026-05-02 20:43 576K
20260502T18Z_MSC_RDPS_WindU_IsbL-0850_RLatLon0.09_PT016H.grib2 2026-05-02 20:43 632K
20260502T18Z_MSC_RDPS_WindU_IsbL-0875_RLatLon0.09_PT016H.grib2 2026-05-02 20:43 651K
20260502T18Z_MSC_RDPS_WindU_IsbL-0900_RLatLon0.09_PT016H.grib2 2026-05-02 20:43 660K
20260502T18Z_MSC_RDPS_WindU_IsbL-0925_RLatLon0.09_PT016H.grib2 2026-05-02 20:43 667K
20260502T18Z_MSC_RDPS_WindU_IsbL-0950_RLatLon0.09_PT016H.grib2 2026-05-02 20:43 664K
20260502T18Z_MSC_RDPS_WindU_IsbL-0970_RLatLon0.09_PT016H.grib2 2026-05-02 20:43 662K
20260502T18Z_MSC_RDPS_WindU_IsbL-0985_RLatLon0.09_PT016H.grib2 2026-05-02 20:43 658K
20260502T18Z_MSC_RDPS_WindU_IsbL-1000_RLatLon0.09_PT016H.grib2 2026-05-02 20:43 794K
20260502T18Z_MSC_RDPS_WindU_IsbL-1015_RLatLon0.09_PT016H.grib2 2026-05-02 20:43 786K
20260502T18Z_MSC_RDPS_WindV_AGL-10m_RLatLon0.09_PT016H.grib2 2026-05-02 20:43 435K
20260502T18Z_MSC_RDPS_WindV_AGL-120m_RLatLon0.09_PT016H.grib2 2026-05-02 20:43 541K
20260502T18Z_MSC_RDPS_WindV_AGL-40m_RLatLon0.09_PT016H.grib2 2026-05-02 20:43 544K
20260502T18Z_MSC_RDPS_WindV_AGL-80m_RLatLon0.09_PT016H.grib2 2026-05-02 20:43 542K
20260502T18Z_MSC_RDPS_WindV_IsbL-0001_RLatLon0.09_PT016H.grib2 2026-05-02 20:43 242K
20260502T18Z_MSC_RDPS_WindV_IsbL-0005_RLatLon0.09_PT016H.grib2 2026-05-02 20:43 281K
20260502T18Z_MSC_RDPS_WindV_IsbL-0010_RLatLon0.09_PT016H.grib2 2026-05-02 20:43 293K
20260502T18Z_MSC_RDPS_WindV_IsbL-0020_RLatLon0.09_PT016H.grib2 2026-05-02 20:43 312K
20260502T18Z_MSC_RDPS_WindV_IsbL-0030_RLatLon0.09_PT016H.grib2 2026-05-02 20:43 313K
20260502T18Z_MSC_RDPS_WindV_IsbL-0050_RLatLon0.09_PT016H.grib2 2026-05-02 20:43 341K
20260502T18Z_MSC_RDPS_WindV_IsbL-0100_RLatLon0.09_PT016H.grib2 2026-05-02 20:43 431K
20260502T18Z_MSC_RDPS_WindV_IsbL-0150_RLatLon0.09_PT016H.grib2 2026-05-02 20:43 402K
20260502T18Z_MSC_RDPS_WindV_IsbL-0175_RLatLon0.09_PT016H.grib2 2026-05-02 20:43 421K
20260502T18Z_MSC_RDPS_WindV_IsbL-0200_RLatLon0.09_PT016H.grib2 2026-05-02 20:43 337K
20260502T18Z_MSC_RDPS_WindV_IsbL-0225_RLatLon0.09_PT016H.grib2 2026-05-02 20:43 342K
20260502T18Z_MSC_RDPS_WindV_IsbL-0250_RLatLon0.09_PT016H.grib2 2026-05-02 20:43 370K
20260502T18Z_MSC_RDPS_WindV_IsbL-0275_RLatLon0.09_PT016H.grib2 2026-05-02 20:43 382K
20260502T18Z_MSC_RDPS_WindV_IsbL-0300_RLatLon0.09_PT016H.grib2 2026-05-02 20:43 354K
20260502T18Z_MSC_RDPS_WindV_IsbL-0350_RLatLon0.09_PT016H.grib2 2026-05-02 20:43 363K
20260502T18Z_MSC_RDPS_WindV_IsbL-0400_RLatLon0.09_PT016H.grib2 2026-05-02 20:43 365K
20260502T18Z_MSC_RDPS_WindV_IsbL-0450_RLatLon0.09_PT016H.grib2 2026-05-02 20:43 366K
20260502T18Z_MSC_RDPS_WindV_IsbL-0500_RLatLon0.09_PT016H.grib2 2026-05-02 20:43 471K
20260502T18Z_MSC_RDPS_WindV_IsbL-0550_RLatLon0.09_PT016H.grib2 2026-05-02 20:43 473K
20260502T18Z_MSC_RDPS_WindV_IsbL-0600_RLatLon0.09_PT016H.grib2 2026-05-02 20:43 479K
20260502T18Z_MSC_RDPS_WindV_IsbL-0650_RLatLon0.09_PT016H.grib2 2026-05-02 20:43 495K
20260502T18Z_MSC_RDPS_WindV_IsbL-0700_RLatLon0.09_PT016H.grib2 2026-05-02 20:43 517K
20260502T18Z_MSC_RDPS_WindV_IsbL-0750_RLatLon0.09_PT016H.grib2 2026-05-02 20:43 543K
20260502T18Z_MSC_RDPS_WindV_IsbL-0800_RLatLon0.09_PT016H.grib2 2026-05-02 20:43 585K
20260502T18Z_MSC_RDPS_WindV_IsbL-0850_RLatLon0.09_PT016H.grib2 2026-05-02 20:43 630K
20260502T18Z_MSC_RDPS_WindV_IsbL-0875_RLatLon0.09_PT016H.grib2 2026-05-02 20:43 649K
20260502T18Z_MSC_RDPS_WindV_IsbL-0900_RLatLon0.09_PT016H.grib2 2026-05-02 20:43 658K
20260502T18Z_MSC_RDPS_WindV_IsbL-0925_RLatLon0.09_PT016H.grib2 2026-05-02 20:43 667K
20260502T18Z_MSC_RDPS_WindV_IsbL-0950_RLatLon0.09_PT016H.grib2 2026-05-02 20:43 664K
20260502T18Z_MSC_RDPS_WindV_IsbL-0970_RLatLon0.09_PT016H.grib2 2026-05-02 20:43 663K
20260502T18Z_MSC_RDPS_WindV_IsbL-0985_RLatLon0.09_PT016H.grib2 2026-05-02 20:43 798K
20260502T18Z_MSC_RDPS_WindV_IsbL-1000_RLatLon0.09_PT016H.grib2 2026-05-02 20:43 792K
20260502T18Z_MSC_RDPS_WindV_IsbL-1015_RLatLon0.09_PT016H.grib2 2026-05-02 20:43 784K